Watsonville, CA

11:27 AM PDT on August 23, 2017 (GMT -0700)
Watsonville Municipal

Weather History for KWVI - September, 2014

Change the Weather History Date:

Wednesday, September 24, 2014

  Actual Average Record
Temperature  
Mean Temperature 71 °F 63 °F  
Max Temperature 78 °F 75 °F 98 °F (2015)
Min Temperature 63 °F 51 °F 47 °F (2005)
Degree Days  
Heating Degree Days 0    
Month to date heating degree days 7  
Since 1 July heating degree days 22  
Cooling Degree Days 6    
Month to date cooling degree days 58  
Year to date cooling degree days 258  
Growing Degree Days 20 (Base 50)    
Moisture  
Dew Point 60 °F    
Average Humidity 74    
Maximum Humidity 93    
Minimum Humidity 54    
Precipitation  
Precipitation 0.01 in - 0.74 in (1982)
Month to date precipitation 0.11  
Year to date precipitation 8.35  
Since 1 July precipitation 0.17  
Sea Level Pressure  
Sea Level Pressure 29.95 in    
Wind  
Wind Speed 4 mph (SSW)    
Max Wind Speed 17 mph    
Max Gust Speed 26 mph    
Visibility 10 miles    
Events      
T = Trace of Precipitation, MM = Missing Value Source: NWS Daily Summary

Daily Weather History Graph

Daily Weather History Graph

Search for Another Location

Airport or City:

Trip Planner

Search our weather history database for the weather conditions in past years. The results will help you decide how hot, cold, wet, or windy it might be!

Date:

Astronomy

Sep. 24, 2014 Rise Set
Actual Time 6:56 AM PDT 7:00 PM PDT
Civil Twilight 6:30 AM PDT 7:26 PM PDT
Nautical Twilight 6:00 AM PDT 7:56 PM PDT
Astronomical Twilight 5:30 AM PDT 8:27 PM PDT
Moon 7:21 AM PDT (9/24) 7:16 PM PDT (9/24)
Length of Visible Light 12h 55m
Length of Day
12h 04m
New Moon, 0% of the Moon is Illuminated
Sep 24
New Moon
Oct 1
First Quarter
Oct 8
Full
Oct 15
Last Quarter
Oct 23
New

Hourly Weather History & Observations

Time (PDT) Temp. Dew Point Humidity Pressure Visibility Wind Dir Wind Speed Gust Speed Precip Events Conditions
12:32 AM 66.0 °F 61.0 °F 84% 29.98 in 10.0 mi East 9.2 mph - N/A   Overcast
12:53 AM 66.0 °F 61.0 °F 84% 29.97 in 10.0 mi East 4.6 mph - N/A   Overcast
1:05 AM 66.0 °F 61.0 °F 84% 29.98 in 10.0 mi ENE 5.8 mph - N/A   Overcast
1:53 AM 66.0 °F 61.0 °F 84% 29.97 in 10.0 mi Calm Calm - N/A   Overcast
2:53 AM 66.0 °F 60.1 °F 81% 29.97 in 10.0 mi NW 3.5 mph - N/A   Overcast
3:09 AM 66.0 °F 60.1 °F 81% 29.97 in 10.0 mi Calm Calm - N/A   Overcast
3:32 AM 66.0 °F 59.0 °F 78% 29.97 in 10.0 mi NNE 3.5 mph - N/A   Overcast
3:53 AM 64.9 °F 59.0 °F 81% 29.96 in 10.0 mi Calm Calm - N/A   Partly Cloudy
4:23 AM 63.0 °F 57.9 °F 84% 29.96 in 10.0 mi Calm Calm - N/A   Mostly Cloudy
4:53 AM 63.0 °F 57.0 °F 81% 29.96 in 10.0 mi Calm Calm - N/A   Mostly Cloudy
5:51 AM 64.4 °F 57.2 °F 77% 29.97 in 10.0 mi WNW 3.5 mph - N/A   Overcast
5:53 AM 64.0 °F 57.9 °F 80% 29.96 in 10.0 mi WNW 3.5 mph - N/A   Overcast
6:53 AM 64.0 °F 57.9 °F 80% 29.97 in 10.0 mi Calm Calm - N/A   Overcast
7:53 AM 64.9 °F 57.9 °F 78% 29.99 in 10.0 mi Calm Calm - N/A   Overcast
8:53 AM 66.9 °F 57.9 °F 73% 29.99 in 10.0 mi Calm Calm - N/A   Overcast
9:53 AM 68.0 °F 57.9 °F 70% 29.99 in 10.0 mi Variable 4.6 mph - N/A   Overcast
10:26 AM 69.1 °F 57.9 °F 68% 29.99 in 10.0 mi ESE 3.5 mph - N/A   Overcast
10:53 AM 71.1 °F 57.9 °F 63% 29.98 in 10.0 mi East 4.6 mph - N/A   Mostly Cloudy
11:01 AM 71.1 °F 57.9 °F 63% 29.98 in 10.0 mi Calm Calm - N/A   Partly Cloudy
11:53 AM 75.0 °F 57.9 °F 55% 29.96 in 10.0 mi SE 4.6 mph - N/A   Clear
12:53 PM 75.9 °F 59.0 °F 56% 29.95 in 10.0 mi SW 8.1 mph - N/A   Clear
1:53 PM 77.0 °F 60.1 °F 56% 29.93 in 10.0 mi Variable 6.9 mph - N/A   Clear
2:53 PM 75.0 °F 60.1 °F 60% 29.92 in 10.0 mi WSW 15.0 mph - N/A   Clear
3:53 PM 72.0 °F 61.0 °F 68% 29.92 in 10.0 mi SW 10.4 mph 18.4 mph N/A   Clear
4:53 PM 73.0 °F 62.1 °F 68% 29.91 in 10.0 mi SW 10.4 mph - N/A   Partly Cloudy
5:40 PM 70.0 °F 62.1 °F 76% 29.91 in 10.0 mi WSW 8.1 mph - N/A   Mostly Cloudy
5:53 PM 70.0 °F 62.1 °F 76% 29.91 in 10.0 mi Variable 5.8 mph - N/A   Overcast
6:21 PM 69.1 °F 63.0 °F 81% 29.92 in 10.0 mi Variable 4.6 mph - N/A   Overcast
6:53 PM 68.0 °F 63.0 °F 84% 29.92 in 10.0 mi South 6.9 mph - N/A   Overcast
7:45 PM 66.9 °F 63.0 °F 87% 29.92 in 10.0 mi SSW 6.9 mph - N/A   Overcast
7:53 PM 66.9 °F 63.0 °F 87% 29.92 in 10.0 mi SSW 4.6 mph - N/A   Overcast
8:38 PM 66.0 °F 63.0 °F 90% 29.93 in 8.0 mi SSW 3.5 mph - N/A   Overcast
8:53 PM 66.9 °F 63.0 °F 87% 29.93 in 10.0 mi Calm Calm - N/A   Overcast
9:41 PM 66.9 °F 63.0 °F 87% 29.93 in 10.0 mi Calm Calm - N/A   Overcast
9:53 PM 66.9 °F 63.0 °F 87% 29.93 in 10.0 mi Calm Calm - N/A   Overcast
10:53 PM 68.0 °F 63.0 °F 84% 29.93 in 10.0 mi Calm Calm - N/A   Overcast
11:53 PM 66.9 °F 64.0 °F 90% 29.93 in 6.0 mi Calm Calm - N/A   Overcast